Weather History for KWRI - June, 2013

Change the Weather History Date:

Monday, June 17, 2013

  Actual Average Record
Temperature  
Mean Temperature 74 °F -  
Max Temperature 86 °F 78 °F 93 °F (2014)
Min Temperature 63 °F 59 °F 48 °F (2003)
Cooling Degree Days 10    
Growing Degree Days 24 (Base 50)    
Moisture  
Dew Point 66 °F    
Average Humidity 77    
Maximum Humidity 100    
Minimum Humidity 51    
Precipitation  
Precipitation 0.00 in - - ()
Sea Level Pressure  
Sea Level Pressure 29.89 in    
Wind  
Wind Speed 6 mph (SW)    
Max Wind Speed 15 mph    
Max Gust Speed 22 mph    
Visibility 10 miles    
Events Rain    
Averages and records for this station are not official NWS values.
T = Trace of Precipitation, MM = Missing Value Source: NWS Daily Summary

Daily Weather History Graph

Daily Weather History Graph

Search for Another Location

Airport or City:

Trip Planner

Search our weather history database for the weather conditions in past years. The results will help you decide how hot, cold, wet, or windy it might be!

Date:

Astronomy

Jun. 17, 2013 Rise Set
Actual Time 5:29 AM EDT 8:29 PM EDT
Civil Twilight 4:56 AM EDT 9:02 PM EDT
Nautical Twilight 4:14 AM EDT 9:44 PM EDT
Astronomical Twilight 3:25 AM EDT 10:33 PM EDT
Moon 2:05 PM EDT (6/17) 1:03 AM EDT (6/17)
Length of Visible Light 16h 06m
Length of Day
15h 00m
First Quarter, 60% of the Moon is Illuminated
Jun 17
First Quarter
Jun 23
Full
Jun 30
Last Quarter
Jul 8
New
Jul 15
First Quarter

Hourly Weather History & Observations

Time (EDT) Temp. Heat Index Dew Point Humidity Pressure Visibility Wind Dir Wind Speed Gust Speed Precip Events Conditions
12:58 AM 66.9 °F - 65.7 °F 96% 29.88 in 10.0 mi SW 3.5 mph - N/A   Clear
1:58 AM 66.0 °F - 65.5 °F 98% 29.89 in 10.0 mi SSW 2.3 mph - N/A   Clear
2:58 AM 66.4 °F - 65.5 °F 97% 29.88 in 10.0 mi WSW 2.3 mph - N/A   Clear
3:58 AM 63.9 °F - 63.7 °F 99% 29.89 in 10.0 mi South 4.6 mph - N/A   Clear
4:58 AM 64.9 °F - 64.6 °F 99% 29.90 in 10.0 mi SW 1.2 mph - N/A   Clear
5:12 AM 64.4 °F - 64.4 °F 100% 29.89 in 9.0 mi Calm Calm - N/A   Clear
5:17 AM 64.4 °F - 64.4 °F 100% 29.89 in 8.0 mi SW 1.2 mph - N/A   Clear
5:58 AM 64.4 °F - 64.2 °F 99% 29.91 in 10.0 mi SW 4.6 mph - N/A   Clear
6:38 AM 66.2 °F - 66.2 °F 100% 29.91 in 10.0 mi SW 4.6 mph - N/A Rain Light Rain
6:47 AM 68.0 °F - 66.2 °F 94% 29.90 in 10.0 mi WSW 4.6 mph - N/A   Clear
6:58 AM 67.3 °F - 66.4 °F 97% 29.92 in 10.0 mi WSW 3.5 mph - 0.00 in   Clear
7:58 AM 70.2 °F - 67.1 °F 90% 29.93 in 10.0 mi WSW 5.8 mph - N/A   Clear
8:23 AM 71.6 °F - 68.0 °F 88% 29.92 in 10.0 mi West 5.8 mph - N/A Rain Light Rain
8:26 AM 71.6 °F - 66.2 °F 83% 29.92 in 10.0 mi West 6.9 mph - N/A   Clear
8:58 AM 73.2 °F - 66.7 °F 80% 29.93 in 10.0 mi WSW 4.6 mph - 0.00 in   Partly Cloudy
9:58 AM 78.1 °F - 67.5 °F 70% 29.92 in 10.0 mi WSW 8.1 mph - N/A   Clear
10:58 AM 81.0 °F 83.3 °F 66.7 °F 62% 29.90 in 10.0 mi SW 9.2 mph - N/A   Partly Cloudy
11:58 AM 82.2 °F 84.6 °F 66.7 °F 59% 29.89 in 10.0 mi WSW 10.4 mph - N/A   Partly Cloudy
12:58 PM 84.4 °F 86.8 °F 66.4 °F 55% 29.90 in 10.0 mi SW 11.5 mph 21.9 mph N/A   Partly Cloudy
1:21 PM 84.2 °F 85.6 °F 64.4 °F 51% 29.88 in 10.0 mi SW 15.0 mph - N/A   Clear
1:58 PM 85.1 °F 86.9 °F 65.3 °F 51% 29.87 in 10.0 mi SW 11.5 mph 19.6 mph N/A   Partly Cloudy
2:17 PM 86.0 °F 88.2 °F 66.2 °F 51% 29.86 in 10.0 mi West 13.8 mph - N/A   Scattered Clouds
2:58 PM 85.3 °F 87.4 °F 66.0 °F 52% 29.87 in 10.0 mi SW 9.2 mph - N/A   Mostly Cloudy
3:15 PM 84.2 °F 86.6 °F 66.2 °F 55% 29.85 in 10.0 mi SW 12.7 mph 19.6 mph N/A   Mostly Cloudy
3:58 PM 85.6 °F 87.9 °F 66.2 °F 52% 29.85 in 10.0 mi WSW 15.0 mph 20.7 mph N/A   Clear
4:58 PM 84.4 °F 87.1 °F 67.1 °F 56% 29.84 in 10.0 mi West 13.8 mph - N/A   Clear
5:58 PM 83.5 °F 86.2 °F 67.1 °F 58% 29.85 in 10.0 mi SW 12.7 mph - N/A   Clear
6:58 PM 81.5 °F 83.7 °F 66.6 °F 60% 29.86 in 10.0 mi NNW 9.2 mph - N/A   Mostly Cloudy
7:58 PM 79.0 °F - 66.6 °F 66% 29.88 in 10.0 mi SW 8.1 mph - N/A   Clear
8:58 PM 74.5 °F - 64.9 °F 72% 29.88 in 10.0 mi WSW 6.9 mph - N/A   Clear
9:58 PM 70.3 °F - 62.1 °F 75% 29.91 in 10.0 mi SW 8.1 mph - N/A   Clear
10:58 PM 68.5 °F - 61.9 °F 79% 29.92 in 10.0 mi WSW 4.6 mph - N/A   Clear
11:58 PM 68.4 °F - 62.4 °F 81% 29.91 in 10.0 mi WSW 4.6 mph - N/A   Clear